When you browse on this site, cookies collect data to enhance your experience and personalize the content and advertising you see.
Visit our Privacy Policy to learn more. By continuing to use the site, you agree to this use of cookies and data.
  • In Hungary
  • List of Countries
  • For 7 days
  • Water Temperature
  • Satellite Maps
  • Weather Map
  • News
  • Weather Widgets
  • user-avatar
    Login

    Hourly Weather Baden-Baden

    Today, 16 July, Tuesday

    Time Temperature Precipitation Wind Pressure Humidity
    00:00 +13°C° 0 mm 1 mps 731 mmHg 88%
    01:00 +12°C° 0 mm 1 mps 731 mmHg 91%
    02:00 +12°C° 0 mm 1 mps 731 mmHg 91%
    03:00 +12°C° 0 mm 1 mps 731 mmHg 92%
    04:00 +11°C° 0 mm 1 mps 731 mmHg 92%
    05:00 +13°C° 0 mm 1 mps 731 mmHg 88%
    06:00 +14°C° 0 mm 1 mps 731 mmHg 84%
    07:00 +15°C° 0 mm 1 mps 732 mmHg 76%
    08:00 +18°C° 0 mm 1 mps 732 mmHg 71%
    09:00 +20°C° 0 mm 1 mps 732 mmHg 65%
    10:00 +20°C° 0 mm 2 mps 732 mmHg 59%
    11:00 +21°C° 0 mm 2 mps 731 mmHg 55%
    12:00 +24°C° 0 mm 1 mps 731 mmHg 51%
    13:00 +25°C° 0 mm 1 mps 731 mmHg 49%
    14:00 +25°C° 0 mm 1 mps 731 mmHg 48%
    15:00 +25°C° 0 mm 1 mps 731 mmHg 47%
    16:00 +25°C° 0 mm 1 mps 731 mmHg 46%
    17:00 +24°C° 0 mm 1 mps 730 mmHg 52%
    18:00 +23°C° 0 mm 1 mps 730 mmHg 58%
    19:00 +22°C° 0 mm 1 mps 730 mmHg 64%
    20:00 +21°C° 0 mm 1 mps 730 mmHg 68%
    21:00 +19°C° 0 mm 1 mps 730 mmHg 71%
    22:00 +16°C° 0 mm 1 mps 730 mmHg 74%
    23:00 +16°C° 0 mm 1 mps 730 mmHg 74%

    Tomorrow, 17 July, Wednesday

    Time Temperature Precipitation Wind Pressure Humidity
    00:00 +16°C° 0 mm 1 mps 730 mmHg 75%
    01:00 +15°C° 0 mm 1 mps 730 mmHg 75%
    02:00 +14°C° 0 mm 0 mps 730 mmHg 78%
    03:00 +13°C° 0 mm 0 mps 730 mmHg 80%
    04:00 +13°C° 0 mm 0 mps 729 mmHg 83%
    05:00 +14°C° 0 mm 0 mps 729 mmHg 80%
    06:00 +15°C° 0 mm 0 mps 729 mmHg 77%
    07:00 +16°C° 0 mm 0 mps 729 mmHg 74%
    08:00 +18°C° 0 mm 0 mps 729 mmHg 68%
    09:00 +22°C° 0 mm 1 mps 729 mmHg 63%
    10:00 +23°C° 0 mm 1 mps 730 mmHg 57%
    11:00 +24°C° 0 mm 1 mps 729 mmHg 53%
    12:00 +25°C° 0 mm 2 mps 729 mmHg 50%
    13:00 +26°C° 0 mm 2 mps 729 mmHg 46%
    14:00 +26°C° 0 mm 2 mps 729 mmHg 45%
    15:00 +26°C° 0 mm 2 mps 729 mmHg 43%
    16:00 +27°C° 0 mm 2 mps 729 mmHg 41%
    17:00 +26°C° 0 mm 2 mps 728 mmHg 47%
    18:00 +25°C° 0 mm 1 mps 728 mmHg 54%
    19:00 +24°C° 0 mm 1 mps 728 mmHg 60%
    20:00 +22°C° 0 mm 1 mps 728 mmHg 63%
    21:00 +20°C° 0 mm 1 mps 728 mmHg 67%
    22:00 +18°C° 0 mm 1 mps 728 mmHg 70%
    23:00 +18°C° 0 mm 1 mps 728 mmHg 70%

    Day after tomorrow, 18 July, Thursday

    Time Temperature Precipitation Wind Pressure Humidity
    00:00 +16°C° 0 mm 1 mps 728 mmHg 71%
    01:00 +16°C° 0 mm 1 mps 728 mmHg 72%
    02:00 +16°C° 0 mm 1 mps 728 mmHg 73%
    03:00 +16°C° 0 mm 1 mps 728 mmHg 74%
    04:00 +15°C° 0 mm 1 mps 728 mmHg 75%
    05:00 +16°C° 0 mm 1 mps 728 mmHg 74%
    06:00 +18°C° 0 mm 1 mps 728 mmHg 73%
    07:00 +19°C° 0 mm 1 mps 728 mmHg 72%
    08:00 +20°C° 0 mm 1 mps 728 mmHg 67%
    09:00 +21°C° 0 mm 2 mps 728 mmHg 62%
    10:00 +23°C° 0 mm 2 mps 729 mmHg 58%
    11:00 +24°C° 0 mm 2 mps 728 mmHg 53%
    12:00 +25°C° 0 mm 3 mps 728 mmHg 48%
    13:00 +26°C° 0 mm 3 mps 728 mmHg 44%
    14:00 +26°C° 0 mm 3 mps 728 mmHg 44%
    15:00 +27°C° 0 mm 3 mps 728 mmHg 45%
    16:00 +27°C° 0 mm 3 mps 728 mmHg 45%
    17:00 +26°C° 0 mm 2 mps 728 mmHg 52%
    18:00 +25°C° 0 mm 2 mps 728 mmHg 59%
    19:00 +23°C° 0 mm 1 mps 728 mmHg 66%
    20:00 +22°C° 0.3 mm 1 mps 728 mmHg 71%
    21:00 +20°C° 0.3 mm 2 mps 728 mmHg 77%
    22:00 +18°C° 0.3 mm 2 mps 729 mmHg 82%
    23:00 +18°C° 0.4 mm 2 mps 728 mmHg 84%

    19 July, Friday

    Time Temperature Precipitation Wind Pressure Humidity
    00:00 +19°C° 0.4 mm 1 mps 728 mmHg 86%
    01:00 +18°C° 0.4 mm 1 mps 728 mmHg 88%
    02:00 +18°C° 0.5 mm 1 mps 728 mmHg 89%
    03:00 +18°C° 0.5 mm 1 mps 728 mmHg 90%
    04:00 +16°C° 0.5 mm 1 mps 728 mmHg 91%
    05:00 +18°C° 0.2 mm 1 mps 729 mmHg 90%
    06:00 +18°C° 0.2 mm 2 mps 729 mmHg 89%
    07:00 +18°C° 0.2 mm 2 mps 729 mmHg 88%
    08:00 +20°C° 0.2 mm 2 mps 729 mmHg 81%
    09:00 +21°C° 0.2 mm 2 mps 729 mmHg 74%
    10:00 +24°C° 0.2 mm 2 mps 730 mmHg 67%
    11:00 +24°C° 0.4 mm 2 mps 730 mmHg 64%
    12:00 +25°C° 0.4 mm 2 mps 729 mmHg 62%
    13:00 +25°C° 0.4 mm 3 mps 729 mmHg 59%
    14:00 +25°C° 0.4 mm 2 mps 729 mmHg 60%
    15:00 +25°C° 0.4 mm 2 mps 729 mmHg 61%
    16:00 +25°C° 0.4 mm 2 mps 729 mmHg 62%
    17:00 +24°C° 0.3 mm 2 mps 729 mmHg 68%
    18:00 +24°C° 0.3 mm 1 mps 729 mmHg 74%
    19:00 +23°C° 0.3 mm 1 mps 729 mmHg 80%
    20:00 +21°C° 0 mm 1 mps 729 mmHg 82%
    21:00 +20°C° 0 mm 1 mps 729 mmHg 85%
    22:00 +19°C° 0 mm 1 mps 730 mmHg 88%
    23:00 +18°C° 0 mm 1 mps 729 mmHg 88%

    20 July, Saturday

    Time Temperature Precipitation Wind Pressure Humidity
    00:00 +18°C° 0 mm 1 mps 729 mmHg 88%
    01:00 +18°C° 0 mm 1 mps 729 mmHg 88%
    02:00 +16°C° 0 mm 1 mps 729 mmHg 88%
    03:00 +16°C° 0 mm 1 mps 729 mmHg 88%
    04:00 +16°C° 0 mm 1 mps 728 mmHg 88%
    05:00 +16°C° 0 mm 0 mps 728 mmHg 86%
    06:00 +17°C° 0 mm 0 mps 729 mmHg 83%
    07:00 +18°C° 0 mm 0 mps 729 mmHg 81%
    08:00 +20°C° 0 mm 0 mps 729 mmHg 72%
    09:00 +25°C° 0 mm 1 mps 729 mmHg 64%
    10:00 +27°C° 0 mm 1 mps 729 mmHg 55%
    11:00 +28°C° 0 mm 1 mps 729 mmHg 52%
    12:00 +29°C° 0 mm 2 mps 729 mmHg 48%
    13:00 +30°C° 0 mm 2 mps 729 mmHg 45%
    14:00 +30°C° 0 mm 2 mps 729 mmHg 46%
    15:00 +29°C° 0 mm 2 mps 729 mmHg 47%
    16:00 +29°C° 0 mm 2 mps 729 mmHg 48%
    17:00 +27°C° 0.4 mm 2 mps 729 mmHg 58%
    18:00 +26°C° 0.4 mm 3 mps 729 mmHg 67%
    19:00 +24°C° 0.4 mm 3 mps 729 mmHg 77%
    20:00 +21°C° 0.5 mm 3 mps 730 mmHg 80%
    21:00 +20°C° 0.5 mm 3 mps 730 mmHg 82%
    22:00 +19°C° 0.5 mm 3 mps 731 mmHg 84%
    23:00 +19°C° 0 mm 2 mps 731 mmHg 86%

    21 July, Sunday

    Time Temperature Precipitation Wind Pressure Humidity
    00:00 +18°C° 0 mm 2 mps 731 mmHg 87%
    01:00 +17°C° 0 mm 2 mps 731 mmHg 88%
    02:00 +17°C° 0 mm 2 mps 731 mmHg 89%
    03:00 +17°C° 0 mm 2 mps 731 mmHg 89%
    04:00 +17°C° 0 mm 2 mps 731 mmHg 90%
    05:00 +18°C° 0 mm 2 mps 731 mmHg 88%
    06:00 +18°C° 0 mm 2 mps 732 mmHg 87%
    07:00 +19°C° 0 mm 3 mps 732 mmHg 85%
    08:00 +21°C° 0.1 mm 3 mps 733 mmHg 79%
    09:00 +22°C° 0.1 mm 3 mps 733 mmHg 73%
    10:00 +24°C° 0.1 mm 3 mps 733 mmHg 67%
    11:00 +25°C° 0.1 mm 3 mps 733 mmHg 62%
    12:00 +26°C° 0.1 mm 3 mps 733 mmHg 58%
    13:00 +27°C° 0.1 mm 3 mps 733 mmHg 53%
    14:00 +27°C° 0 mm 3 mps 733 mmHg 52%
    15:00 +27°C° 0 mm 3 mps 733 mmHg 50%
    16:00 +28°C° 0 mm 3 mps 733 mmHg 49%
    17:00 +27°C° 0 mm 3 mps 733 mmHg 54%
    18:00 +26°C° 0 mm 2 mps 733 mmHg 59%
    19:00 +25°C° 0 mm 2 mps 734 mmHg 64%
    20:00 +23°C° 0 mm 1 mps 734 mmHg 68%
    21:00 +21°C° 0 mm 1 mps 734 mmHg 72%
    22:00 +20°C° 0 mm 1 mps 734 mmHg 77%
    23:00 +19°C° 0 mm 1 mps 734 mmHg 78%
    Show more